Torna al catalogo

FENGYUN 1C DEB

LostPO
NORAD 31729·DEBRIS·🇨🇳 China

Lanciato May 10, 1999 da Taiyuan Satellite Launch Center

Loading…

Prossimi Passaggi (prossime 24 ore)

TLE

ObsoletoSource: Space-Track

Epoca: Sep 6, 2024, 07:28 UTC

1 31729U 99025CEC 24250.31138002  .00025255  00000-0  11611-1 0  9998
2 31729  99.2828  67.6606 0067315 137.1310 223.5140 14.19900273571164

Traccia FENGYUN 1C DEB in tempo reale con AllMySat

Download on the App Store